Regional Weather Roundup
Issued by NWS

Home | Current Version | Previous Version | Graphics & Text | Print | Product List | Glossary On
Versions: 1 2 3 4 5 6 7 8 9 10 11 12 13 14 15 16 17 18 19 20 21 22 23 24 25 26 27 28 29 30 31 32 33 34 35 36 37 38 39 40 41 42 43 44 45 46 47 48 49 50
997
ASUS43 KLMK 040810
RWRKY
KENTUCKY REGIONAL WEATHER ROUNDUP
NATIONAL WEATHER SERVICE LOUISVILLE KY
300 AM EST SUN DEC 04 2016

NOTE "FAIR" INDICATES FEW OR NO CLOUDS BELOW 12,000 FEET
WITH NO SIGNIFICANT WEATHER AND/OR OBSTRUCTIONS TO VISIBILITY.

KYZ001>023-026-027-061>063-070>075-040900-
WESTERN AND SOUTH CENTRAL KENTUCKY

CITY           SKY/WX    TMP DP  RH WIND       PRES   REMARKS
PADUCAH        CLOUDY    39  36  89 NE7       30.16S WCI  34
HENDERSON      CLOUDY    39  30  70 E10       30.18F WCI  32
OWENSBORO      LGT RAIN  41  32  70 E9        30.19F
HOPKINSVILLE   CLOUDY    39  37  93 E8        30.14F WCI  34
BOWLING GREEN  LGT RAIN  40  36  86 E6        30.19F
GLASGOW        LGT RAIN  38  36  90 E6        30.18F WCI  34
$$

KYZ024-025-028>034-038-045-046-053-040900-
NORTH CENTRAL KENTUCKY

CITY           SKY/WX    TMP DP  RH WIND       PRES   REMARKS
LOUISVILLE/SDF CLOUDY    41  28  60 E6        30.22F
LOUISVILLE/LOU CLOUDY    41  30  65 E3        30.23F
FORT KNOX      CLOUDY    39  30  70 E7        30.19F WCI  34
$$

KYZ035>037-039>044-047>052-055>060-089>105-040900-
NORTHEAST KENTUCKY

CITY           SKY/WX    TMP DP  RH WIND       PRES   REMARKS
LEXINGTON      CLOUDY    39  30  70 E5        30.24R
COVINGTON      CLOUDY    37  31  78 SE6       30.25S WCI  32
FRANKFORT      CLOUDY    39  29  67 E6        30.23S WCI  35
$$

KYZ054-064>069-076>088-106>120-040900-
SOUTHEAST KENTUCKY

CITY           SKY/WX    TMP DP  RH WIND       PRES   REMARKS
JACKSON        CLOUDY    37  28  70 CALM      30.22S
LONDON         CLOUDY    39  29  67 CALM      30.22R
SOMERSET       LGT RAIN  36  32  87 CALM      30.23S
MIDDLESBORO    RAIN      39  36  88 CALM      30.24R
MONTICELLO     LGT RAIN  38  35  89 W5        30.23R WCI  34
$$





USA.gov is the U.S. government's official web portal to all federal, state and local government web resources and services.